Location: Achicourt
(50.2743°N, 2.7578°E)
Time: 16:34:41
(UTC+00:00)

Daily predictions for brighter satellites

Satellite Brightness Start Highest point End
(mag) Time Altitude Azimuth Time Altitude Azimuth Time Altitude Azimuth
ATLAS CENTAUR R/B 4.4 19:44:13 10° WNW 19:50:25 65° NNE 20:07:09 10° ESE
IRS-1A Rocket 4.3 19:52:03 10° SSE 19:57:33 90° WSW 20:03:08 10° NNW
USA 234 4.0 19:51:51 10° ENE 19:58:14 56° NNW 20:04:36 10° W
Cosmos 923 Rocket 4.0 19:55:28 10° SSW 20:00:47 73° ESE 20:06:08 10° NNE
OBJECT-B 2.7 19:58:07 10° SSW 20:01:00 31° W 20:03:56 10° NNW
BREEZE-M DEB (TANK) 4.1 20:01:11 10° W 20:04:08 41° SSW 20:11:53 10° SE
Cosmos 2219 Rocket 3.1 19:59:23 10° NNW 20:04:32 36° NE 20:09:40 10° ESE
SJ-6B 4.3 20:04:13 10° SSW 20:07:41 36° W 20:11:13 10° NNW
Resurs 1-3 4.0 20:03:43 10° S 20:08:05 69° WSW 20:12:28 10° NNW
Cosmos 2056 Rocket 3.6 20:04:09 10° NNW 20:09:31 76° ENE 20:14:46 10° SSE
ATLAS 5 CENTAUR R/B 3.0 20:05:36 10° NW 20:10:35 44° NE 20:16:29 10° ESE
Spot 2 Rocket 4.2 20:14:19 10° SE 20:19:04 40° ENE 20:23:50 10° N
SPOT 1/Viking Rocket 3.7 20:15:09 10° SSE 20:20:16 61° ENE 20:25:26 10° N
USA 245 3.8 20:17:06 10° SE 20:21:01 40° ENE 20:24:14 10° N
Cosmos 1408 Rocket 4.5 20:17:35 10° SSE 20:21:20 29° E 20:25:03 10° NNE
Cosmos 1092 Rocket 4.1 20:16:06 10° S 20:22:24 89° WNW 20:28:48 10° N
NOSS 2-1 (E) 2.9 20:19:18 10° SSW 20:22:29 54° SE 20:25:53 10° NE
CZ-2C R/B 4.3 20:21:24 10° NNE 20:25:32 36° E 20:29:37 10° SSE
SL-16 R/B 3.3 20:20:43 10° NW 20:26:01 42° WSW 20:31:18 10° S
Cosmos 2026 Rocket 4.0 20:19:46 10° S 20:26:04 81° E 20:32:17 10° NNE
GP-B 3.2 20:23:58 10° N 20:28:23 61° E 20:32:46 10° S
IGS 5A 3.7 20:24:36 10° S 20:28:44 70° WSW 20:32:54 10° NNW
Cosmos 1151 Rocket 3.1 20:26:28 10° NNW 20:30:52 84° W 20:35:15 10° S
Cosmos 1371 Rocket 4.4 20:26:25 10° NNW 20:31:47 69° WSW 20:37:05 10° SSE
NOSS 3-1 (C) 4.1 20:25:35 10° NW 20:32:54 90° WNW 20:40:55 13° SE
CARTOSAT-1 4.0 20:29:08 12° SE 20:32:58 46° ENE 20:37:07 10° N
Cosmos 1680 Rocket 3.6 20:27:57 10° SSW 20:33:14 82° WNW 20:38:31 10° NNE
Cosmos 1271 Rocket 4.3 20:31:08 10° NNW 20:34:51 36° W 20:38:32 10° SSW
Cosmos 2112 Rocket 4.0 20:29:46 10° SSW 20:35:03 90° SE 20:40:21 10° NNE
Lacrosse 5 3.5 20:33:37 12° SE 20:35:09 14° ESE 20:37:43 10° E
Cosmos 2333 4.2 20:31:15 10° NNW 20:36:53 75° ENE 20:41:51 13° SE
Okean 3 Rocket 3.6 20:33:14 10° S 20:37:44 77° E 20:42:18 10° NNE
ERS-2 2.4 20:37:00 10° N 20:40:39 71° WNW 20:44:16 10° SSW
Meteor 1-10 Rocket 4.3 20:36:16 10° N 20:41:48 63° ENE 20:46:47 13° SSE
MetOp-B 4.2 20:37:09 10° SSE 20:42:31 83° WSW 20:47:55 10° NNW
CZ-4C R/B 4.3 20:39:32 10° NW 20:45:02 29° NNE 20:51:27 10° ENE
COSMOS 2487 3.4 20:45:40 17° SSE 20:47:25 26° ESE 20:50:19 10° NE
Cosmos 1515 Rocket 3.6 20:43:45 10° N 20:48:11 65° ENE 20:51:44 15° SSE
COSMOS 2428 3.0 20:43:47 10° NNW 20:49:26 57° NE 20:53:52 16° SE
GEOS 3 Rocket 3.8 20:44:22 10° NE 20:49:36 79° NW 20:54:44 10° SW
USA 229 DEB 4.0 20:43:53 10° NW 20:51:09 79° NE 20:57:36 16° SE
USA 229 4.0 20:43:59 10° NW 20:51:15 79° NE 20:57:42 16° SE
COSMOS 2455 3.1 20:47:43 10° S 20:53:27 49° ESE 20:59:13 10° NE
Cosmos 292 Rocket 4.0 20:51:09 10° NNW 20:55:55 70° WSW 20:59:58 14° SSE
Cosmos 1328 Rocket 4.0 20:52:48 10° NNW 20:57:12 60° W 21:01:31 10° S
Terra 2.4 20:54:30 17° SE 20:57:46 43° ENE 21:02:16 10° N
Cosmos 2084 Rocket 4.0 20:55:18 10° NW 20:59:21 50° NE 21:02:26 17° ESE
Cosmos 2360 Rocket 2.9 20:53:56 10° NW 20:59:21 49° WSW 21:04:37 11° S
Cosmos 1766 Rocket 4.2 21:00:04 10° SSW 21:04:22 56° WNW 21:08:40 10° N
SPOT 3 Rocket 4.4 21:00:42 10° S 21:05:44 48° W 21:10:48 10° NNW
Cosmos 972 Rocket 4.3 21:01:59 14° S 21:06:08 42° ESE 21:10:47 10° NNE
NOSS 2-1 (C) 3.8 21:03:30 10° WSW 21:06:42 50° NW 21:10:07 10° NE
Resurs 01 Rocket 3.3 21:06:53 10° SSW 21:10:48 30° W 21:14:45 10° NNW
NOSS 3-1 (A) 4.1 21:04:22 10° NW 21:11:44 86° SW 21:18:16 19° SE
NOSS 2-1 (D) 4.2 21:11:23 10° WSW 21:14:32 43° NW 21:17:56 10° NE
Cosmos 2266 Rocket 4.1 21:09:42 13° S 21:15:06 63° E 21:21:20 10° NNE
Cosmos 1812 4.0 21:11:55 10° NNW 21:15:31 38° W 21:19:06 10° SSW
Cosmos 1553 Rocket 4.4 21:10:26 10° NNW 21:16:25 60° W 21:22:25 10° S
Cosmos 1862 3.9 21:16:57 10° SSW 21:20:52 57° WNW 21:24:48 10° N
Meteor 2-21 Rocket 4.5 21:17:29 10° S 21:23:41 86° W 21:29:52 10° N
ERS-1 Rocket 3.0 21:20:14 20° SSE 21:23:43 86° WSW 21:28:47 10° NNW
SL-27 R/B 4.2 21:20:28 10° SW 21:23:48 36° WNW 21:27:10 10° N
Cosmos 2228 Rocket 3.2 21:20:10 10° N 21:24:35 63° ENE 21:26:53 27° SSE
Cosmos 2285 Rocket 4.0 21:22:33 10° NNW 21:28:54 87° WSW 21:33:03 23° SSE
Cosmos 2297 Rocket 3.5 21:31:26 20° ESE 21:32:20 21° E 21:36:27 10° NE
Cosmos 2315 Rocket 4.0 21:27:09 10° N 21:33:31 75° E 21:37:36 24° SSE
Cosmos 1805 Rocket 3.8 21:31:35 29° SSE 21:33:31 50° E 21:37:47 10° NNE
BREEZE-M DEB (TANK) 2.4 21:27:37 10° W 21:33:40 56° SSW 21:34:37 37° SE
NOSS 0 Rocket 4.0 21:27:51 10° NNW 21:34:08 73° ENE 21:37:53 25° SE
SPOT 5 2.8 21:31:58 23° S 21:34:40 68° WSW 21:39:12 10° NNW
ARIANE 5 R/B 3.1 21:31:52 20° S 21:34:50 56° W 21:39:12 10° NNW
Cosmos 2333 Rocket 2.7 21:29:22 10° NW 21:34:51 52° WSW 21:38:33 20° S
Cosmos 883 Rocket 4.5 21:28:42 10° N 21:35:00 88° E 21:39:17 22° S
Cosmos 2322 Rocket 4.5 21:32:31 10° WNW 21:35:52 16° W 21:39:13 10° SW
Cosmos 2237 Rocket 2.7 21:31:42 10° NNW 21:37:17 52° NE 21:40:34 24° ESE
Cosmos 2322 4.3 21:32:16 10° NW 21:37:49 52° WSW 21:41:29 21° S
USA 234 4.0 21:34:25 10° E 21:40:43 52° N 21:47:02 10° WNW
Cosmos 1452 Rocket 3.9 21:36:10 10° NNW 21:41:20 57° WSW 21:44:29 23° S
Meteor 1-20 Rocket 4.5 21:40:21 26° SSE 21:43:18 52° E 21:48:52 10° NNE
Cosmos 1500 Rocket 3.6 21:40:12 19° SSW 21:43:22 78° W 21:47:51 10° N
NOSS 2-2 (E) 4.4 21:39:51 10° NW 21:44:57 75° NE 21:49:13 24° SE
Cosmos 2227 Rocket 3.6 21:44:49 20° ESE 21:45:22 20° E 21:49:21 10° NE
Cosmos 2219 Rocket 2.8 21:43:18 10° NW 21:48:40 49° WSW 21:51:54 23° S
USA 40 PKM 4.2 21:45:30 10° WNW 21:49:20 86° NNE 21:50:40 37° ESE
USA 102 3.1 21:50:35 81° NE 21:50:35 81° NE 21:58:37 10° NNW
Sich 1 3.0 21:53:28 38° SSE 21:54:57 63° E 21:59:14 10° NNE
ATLAS 5 CENTAUR R/B 2.7 21:50:03 10° NW 21:55:27 55° SW 21:58:39 28° S
Cosmos 1515 3.6 21:52:45 10° N 21:56:33 71° E 21:57:27 49° SE
Cosmos 1331 Rocket 3.9 21:52:01 10° NNW 21:57:16 83° WSW 21:59:36 34° SSE
Meteor 1-27 Rocket 4.3 21:52:04 10° NNW 21:57:38 55° W 22:01:24 21° SSW
Cosmos 1110 Rocket 4.1 21:53:22 10° NNW 21:58:42 74° WSW 22:01:08 33° S
Cosmos 1743 Rocket 4.4 22:02:46 16° SW 22:06:05 49° WNW 22:10:23 10° N
SL-16 R/B 3.2 22:04:24 10° NNW 22:09:40 37° NE 22:12:56 20° ESE
NOSS 2-2 (C) 4.3 22:05:54 10° NW 22:11:00 88° NE 22:14:24 31° SE
Cosmos 1633 Rocket 3.4 22:10:51 41° ESE 22:11:35 46° E 22:15:45 10° NNE
Cosmos 494 Rocket 4.0 22:11:18 21° SSW 22:14:47 82° WNW 22:19:58 10° NNE
Cosmos 1666 4.0 22:15:50 26° E 22:15:50 26° E 22:18:53 10° NNE
Lacrosse 5 1.8 22:12:21 11° SW 22:17:15 61° SE 22:22:16 10° ENE
Cosmos 1666 Rocket 3.5 22:21:09 49° SSE 22:22:13 71° E 22:26:42 10° NNE
APEX 4.4 22:17:43 18° SSW 22:22:21 88° ESE 22:29:16 10° NNE
Cosmos 1602 3.7 22:22:55 54° SSW 22:23:43 79° W 22:27:35 10° N
SL-08 ROCKET BODY 4.5 22:21:32 35° SSE 22:24:06 66° E 22:30:15 10° NNE
Nadezhda 2 Rocket 4.5 22:23:48 31° S 22:27:08 86° E 22:33:37 10° N
Cosmos 1340 Rocket 4.2 22:28:39 25° E 22:28:39 25° E 22:31:40 10° NE
COSMOS 2428 4.1 22:28:35 10° NW 22:33:22 29° WSW 22:35:52 21° SW
Cosmos 1244 Rocket 4.4 22:30:49 33° S 22:33:50 89° ESE 22:40:07 10° N
CZ-4C R/B 3.3 22:28:12 10° NW 22:34:57 58° NE 22:41:11 18° ESE
Terra 3.3 22:33:24 19° SW 22:35:40 28° W 22:39:47 10° NW
Meteor 1-25 Rocket 4.4 22:33:38 27° SSW 22:36:42 68° WNW 22:42:16 10° N
COBE Rocket 3.7 22:36:50 50° S 22:38:04 84° W 22:42:52 10° NNW
Meteor 2-4 Rocket 3.8 22:32:43 10° N 22:38:40 78° ENE 22:40:46 42° SSE
CZ-3B R/B 2.4 22:31:04 10° WNW 22:39:18 51° SW 22:39:48 48° SSW
COSMOS 2455 4.0 22:33:47 10° WSW 22:39:30 43° NW 22:45:16 10° NNE
Timation 2 Rocket 4.4 22:39:26 36° SE 22:40:32 39° ESE 22:46:13 10° NE
Cosmos 1992 Rocket 4.3 22:36:20 10° NNW 22:41:31 58° ENE 22:43:15 38° ESE
Cosmos 2242 Rocket 4.3 22:39:35 10° N 22:43:47 39° ENE 22:44:34 36° E
Cosmos 1862 Rocket 3.5 22:40:14 10° NNW 22:44:35 78° W 22:45:19 60° SSW
Meteor 1-18 Rocket 4.4 22:41:26 10° NNW 22:47:13 66° W 22:49:18 39° SSW
USA 267 3.8 22:41:50 10° ENE 22:47:44 35° SE 22:48:10 35° SE
Cosmos 2219 3.2 22:48:18 44° S 22:49:56 63° ESE 22:55:38 10° NE
Meteor 1-5 Rocket 4.4 22:49:36 43° SSE 22:51:22 63° E 22:57:15 10° NNE
Okean 1 4.2 22:48:36 10° NNW 22:52:20 39° W 22:52:58 36° WSW
Spot 4 3.8 22:52:09 53° S 22:53:17 80° WSW 22:58:10 10° NNW
Cosmos 1302 Rocket 4.4 22:51:09 10° NNW 22:56:14 53° WSW 22:57:32 42° SSW
Cosmos 1500 3.6 22:59:15 50° WSW 22:59:44 55° WNW 23:03:32 10° N
Cosmos 1980 4.4 22:54:34 10° NW 22:59:53 42° WSW 23:01:25 35° SSW
Cosmos 1703 Rocket 3.7 22:56:28 10° N 23:00:48 57° ENE 23:01:20 53° ESE
Cosmos 2082 4.3 23:01:12 38° SE 23:01:52 39° ESE 23:07:09 10° NE
SL-08 R/B 4.5 23:00:49 36° SSW 23:03:28 77° W 23:09:38 10° N
Cosmos 1378 3.4 23:00:26 10° N 23:03:58 58° ENE 23:03:58 58° ENE
Cosmos 909 Rocket 4.4 23:02:47 39° S 23:05:16 61° ESE 23:13:03 10° NE
Meteor 1-11 Rocket 4.2 23:05:19 38° ESE 23:06:25 42° E 23:11:37 10° NNE
Okean 1-7 3.0 23:04:56 10° N 23:09:12 68° ENE 23:09:33 64° ESE
Cosmos 1269 Rocket 4.1 23:10:35 39° SW 23:12:33 74° WNW 23:17:52 10° NNE
Cosmos 2297 Rocket 2.3 23:13:12 34° SW 23:15:46 76° WNW 23:21:29 10° NNE
Meteor 2-17 Rocket 4.3 23:15:38 46° S 23:17:32 82° E 23:23:37 10° NNE
Cosmos 2237 Rocket 3.2 23:16:09 10° NW 23:21:07 32° WSW 23:22:23 29° SW
USA 234 3.3 23:18:04 16° ESE 23:23:25 81° NNE 23:30:00 10° WNW
ALOS 2 2.6 23:23:09 64° SW 23:23:32 68° WSW 23:27:56 10° NNW
Cosmos 1461 3.6 23:27:18 44° E 23:27:18 44° E 23:30:57 10° NE
Meteor 1-13 Rocket 4.1 23:21:36 10° NNW 23:27:22 90° W 23:28:50 52° S
Cosmos 1709 Rocket 4.0 23:26:19 45° SSE 23:28:20 74° E 23:34:44 10° NNE
Cosmos 2227 Rocket 2.2 23:26:37 40° SW 23:28:46 79° WNW 23:34:28 10° NNE
SL-24 R/B - RUBIN 2 4.4 23:25:39 10° NW 23:30:45 52° NE 23:32:45 31° E
Cosmos 2263 Rocket 3.4 23:33:28 27° ESE 23:33:59 27° ESE 23:38:42 10° NE
Cosmos 1745 Rocket 4.3 23:35:14 36° SW 23:37:46 63° WNW 23:44:04 10° N
ATLAS 5 CENTAUR R/B 4.5 23:37:16 10° W 23:39:21 12° WSW 23:40:09 12° WSW
Cosmos 1536 2.8 23:40:44 71° ENE 23:40:44 71° ENE 23:44:39 10° NNE
PSLV R/B 4.4 23:37:41 10° NNE 23:42:13 42° E 23:42:34 41° ESE
Okean 3 3.3 23:41:22 10° N 23:45:39 88° W 23:45:46 84° SSW
Cosmos 1241 Rocket 4.5 23:44:35 43° SSW 23:46:56 79° SE 23:53:27 10° NE
Cosmos 1869 Rocket 3.5 23:47:06 72° SE 23:47:22 75° E 23:51:50 10° NNE
Cosmos 44 3.3 23:45:35 10° NW 23:50:50 70° SW 23:51:25 63° S
Cosmos 1666 4.1 23:50:39 28° W 23:51:07 29° WNW 23:54:30 10° N
Thor Agena Rocket 3.6 23:46:50 10° NNE 23:51:50 57° ESE 23:52:34 51° SE
SL-16 R/B 2.6 23:48:31 10° NW 23:53:56 47° WSW 23:54:47 44° SW
